Regional Weather Roundup
Issued by NWS

Home | Current Version | Previous Version | Text Only | Print | Product List | Glossary Off
Versions: 1 2 3 4 5 6 7 8 9 10 11 12 13 14 15 16 17 18 19 20 21 22 23 24 25 26 27 28 29 30 31 32 33 34 35 36 37 38 39 40 41 42 43 44 45 46 47 48 49 50

000
ASUS43 KMPX 172110
RWRMN
WEATHER ROUNDUP FOR MINNESOTA
NATIONAL WEATHER SERVICE TWIN CITIES/CHANHASSEN MN
300 PM CST SUN DEC 17 2017


NOTE: "FAIR" INDICATES FEW OR NO CLOUDS BELOW 12,000 FEET WITH NO
SIGNIFICANT WEATHER AND/OR OBSTRUCTIONS TO VISIBILITY. N/A MEANS
CURRENT SKY AND/OR WEATHER CONDITIONS ARE NOT AVAILABLE.

MNZ060>063-068>070-172200-
   Twin Cities Metro

CITY           SKY/WX    TMP DP  RH WIND       PRES   REMARKS
TWIN CITIES    CLOUDY    27  24  89 CALM      30.00F FOG
ST PAUL        CLOUDY    28  24  85 CALM      30.02F FOG
CRYSTAL        CLOUDY    27  20  75 CALM      29.99F HAZE
BLAINE         LGT SNOW  28  27  93 CALM      30.00F FOG
LAKEVILLE        N/A     25  25 100 CALM      29.99F FOG
EDEN PRAIRIE   CLOUDY    28  23  81 CALM      29.98F HAZE
SOUTH ST PAUL  MOSUNNY   28  25  87 CALM      30.00F FOG
LAKE ELMO      CLOUDY    28  27  93 CALM      30.01F
$$
MNZ001>005-007-008-013>017-022>024-027-028-172200-
   Northwest Minnesota

CITY           SKY/WX    TMP DP  RH WIND       PRES   REMARKS
BEMIDJI        MOSUNNY   32  27  81 S7        29.89S WCI  25
HALLOCK        CLEAR     19  18  93 SE9       29.86F WCI   9
ROSEAU         CLEAR     25  19  80 SW6       29.87S WCI  18
WARROAD        CLEAR     27  21  80 SW6       29.86F WCI  20
THIEF RVR FALL SUNNY     23  20  88 S8        29.89F WCI  14
CROOKSTON      SUNNY     21  21 100 S9        29.91F WCI  11
FOSSTON        CLOUDY    27  25  93 S10       29.90F FOG     WCI  17
DETROIT LAKES  SUNNY     32  28  86 SW3       29.92F
MOORHEAD       PTSUNNY   30  27  86 CALM      29.93F
PARK RAPIDS    MOSUNNY   29  26  89 SW5       29.91F WCI  24
MAHNOMEN       CLOUDY    29  27  92 S10       29.90F WCI  20
$$
MNZ006-009>011-018-025>026-172200-
   North Central Minnesota

CITY           SKY/WX    TMP DP  RH WIND       PRES   REMARKS
BAUDETTE       CLEAR     30  22  72 W7        29.85F WCI  23
FLAG ISLAND    CLEAR     18  16  93 S5        29.83F WCI  11
INTL FALLS     CLEAR     31  24  75 SW8       29.86F WCI  23
WASKISH        CLEAR     28  27  93 SW6       29.88F WCI  22
BIG FORK       CLOUDY    28  27  93 SW8       29.90F WCI  20
LONGVILLE      CLOUDY    28  27  93 S5        29.93F FOG     WCI  23
GRAND RAPIDS   CLOUDY    26  24  92 S6        29.94F WCI  19
CRANE LAKE     CLOUDY    27  23  86 S6        29.92F WCI  20
ORR            CLOUDY    27  21  80 S5        29.88F WCI  21
COOK           CLOUDY    25  23  93 SW8       29.91F WCI  16
WALKER         CLOUDY    28  26  89 SW7       29.91F WCI  21
$$
MNZ012-019>021-037-172200-
   Northeast Minnesota

CITY           SKY/WX    TMP DP  RH WIND       PRES   REMARKS
DULUTH         PTCLDY    23  20  88 W6        29.94F WCI  16
ELY            CLOUDY    25  21  86 SW7       29.91F WCI  17
HIBBING        CLOUDY    23  21  92 SW3       29.93F
EVELETH        CLOUDY    22  20  89 S6        29.93F FOG     WCI  15
DULUTH HARBOR  CLOUDY    28  23  80 SW8       30.00F WCI  20
TWO HARBORS    CLOUDY    28  23  80 SW5       29.94F WCI  23
SILVER BAY     CLOUDY    28  23  80 CALM      29.93F
GRAND MARAIS     N/A     31  27  85 SW16      29.96F WCI  20
G MARAIS ARPRT CLOUDY    23  19  86 S7        29.90F FOG     WCI  15
$$
MNZ029>031-032-039>041-046>048-054>057-064-172200-
   West Central Minnesota

CITY           SKY/WX    TMP DP  RH WIND       PRES   REMARKS
FERGUS FALLS   CLOUDY    30  30 100 S5        29.97F FOG     WCI  25
WHEATON        CLOUDY    34  30  86 SE5       29.96F FOG     WCI  30
MORRIS         CLOUDY    32  28  86 S7        29.94F WCI  26
ALEXANDRIA     CLOUDY    29  27  92 S7        29.95F FOG     WCI  22
ELBOW LAKE     CLOUDY    30  30 100 S7        29.95F FOG     WCI  23
WADENA         CLOUDY    28  27  93 S5        29.93F FOG     WCI  23
GLENWOOD       CLOUDY    27  27 100 CALM      29.95F FOG
APPLETON       CLOUDY    32  27  80 S3        29.95F
BENSON         CLOUDY    30  27  86 S3        29.97F
ORTONVILLE     MOSUNNY   32  30  93 SE6       29.94F WCI  26
MADISON        CLOUDY    37  30  75 SE6       29.95F
WILLMAR        PTSUNNY   30  27  86 CALM      29.98F FOG
$$
MNZ033>034-036-042>043-049>051-058-059-172200-
   Central Minnesota

CITY           SKY/WX    TMP DP  RH WIND       PRES   REMARKS
ST CLOUD       CLOUDY    26  21  81 S5        29.98F WCI  20
SAUK CENTRE    CLOUDY    27  25  95 CALM      29.96F
PAYNESVILLE    CLOUDY    28  25  88 CALM      29.97F
AITKIN         CLOUDY    25  21  86 S6        29.94F WCI  18
PINE RIVER     CLOUDY    27  25  93 S5        29.97F FOG     WCI  21
BRAINERD       CLOUDY    26  22  84 SW6       29.96F FOG     WCI  19
STAPLES        CLOUDY    27  27 100 S5        29.94F FOG     WCI  21
LONG PRAIRIE   CLOUDY    27  27 100 S3        29.95F FOG
LITTLE FALLS   PTSUNNY   27  18  69 S3        29.98S
LITCHFIELD     CLOUDY    28  23  80 CALM      29.97F
BUFFALO        CLOUDY    27  21  79 CALM      29.99F
MAPLE LAKE     CLOUDY    28  23  81 CALM      29.99F
HUTCHINSON     MOSUNNY   29  22  76 CALM      29.98F
$$
MNZ037-044-045-052-053-172200-
   East Central Minnesota

CITY           SKY/WX    TMP DP  RH WIND       PRES   REMARKS
PRINCETON      CLOUDY    28  21  74 CALM      29.99F
MORA           CLOUDY    27  21  80 CALM      30.01F
CAMBRIDGE      MOSUNNY   28  19  69 CALM      30.00F
RUSH CITY      CLOUDY    25  22  86 S3        30.00F
MOOSE LAKE     CLOUDY    28  19  69 CALM      29.96F
HINCKLEY       FAIR      27  23  86 S3        29.99F
CLOQUET        CLOUDY    25  19  80 SW5       29.95F WCI  19
MCGREGOR       CLOUDY    27  23  86 S3        29.96F
$$
MNZ071>073-080-081-089-090-097-098-172200-
   Southwest Minnesota

CITY           SKY/WX    TMP DP  RH WIND       PRES   REMARKS
MONTEVIDEO     CLOUDY    30  27  86 CALM      29.97F
GRANITE FALLS  CLOUDY    32  26  79 CALM      29.98F HAZE
CANBY          CLOUDY    38  30  73 SE5       29.95F
MARSHALL       CLOUDY    34  28  79 CALM      29.96F
REDWOOD FALLS  CLOUDY    31  24  75 CALM      29.97F
OLIVIA         CLOUDY    30  25  80 CALM      29.96F
PIPESTONE      CLOUDY    37  28  70 NW3       29.92F
WINDOM           N/A     32  19  59 N3        29.95F
WORTHINGTON    PTSUNNY   33  28  81 NE3       29.95F
JACKSON        PTSUNNY   32  23  69 CALM      29.95F
TRACY          CLOUDY    32  28  86 N3        29.95F FOG
SLAYTON        CLOUDY    32  28  86 CALM      29.94F
$$
MNZ065>067-074>077-082>085-091>093-172200-
   South Central Minnesota

CITY           SKY/WX    TMP DP  RH WIND       PRES   REMARKS
MANKATO        CLOUDY    28  24  85 NE3       29.98F FOG
NEW ULM        MOSUNNY   30  21  69 NE3       29.96F
ST JAMES       CLOUDY    30  23  74 CALM      29.98F
FAIRMONT       CLOUDY    31  25  78 E3        29.96F
GLENCOE        CLOUDY    29  26  88 CALM      29.97F
FARIBAULT      CLOUDY    27  25  93 CALM      29.98F FOG
OWATONNA       CLOUDY    27  27 100 CALM      29.96F FOG
WASECA         CLOUDY    28  27  93 CALM      29.97F FOG
ALBERT LEA     CLOUDY    28  27  93 CALM      29.95F FOG
$$
MNZ078>079-086>088-094>096-172200-
   Southeast Minnesota

CITY           SKY/WX    TMP DP  RH WIND       PRES   REMARKS
ROCHESTER      CLOUDY    29  28  96 NE3       29.95F FOG
RED WING       CLOUDY    28  25  86 CALM      30.00F FOG
STANTON        CLOUDY    28  25  90 CALM      29.98F FOG
DODGE CENTER   CLOUDY    27  27 100 CALM      29.96F FOG
WINONA         CLOUDY    32  28  86 CALM      29.99F
AUSTIN         CLOUDY    28  27  93 CALM      29.94F FOG
PRESTON        CLOUDY    28  27  96 CALM      29.96F FOG
$$
ABBREVIATIONS USED IN REMARKS
   TC - TEMPERATURES IN CELSIUS
  WCI - WIND CHILL INDEX
   HX - HEAT INDEX
  VSB - VISIBILITY
$$



USA.gov is the U.S. government's official web portal to all federal, state and local government web resources and services.